Weather History for Monroe, WI

Change the Weather History Date:

Monday, April 15, 2013

  Actual Average Record
Temperature  
Mean Temperature 50 °F -  
Max Temperature 60 °F 0 °F 86 °F (2002)
Min Temperature 39 °F - 21 °F (2014)
Degree Days  
Heating Degree Days 16    
Moisture  
Dew Point 43 °F    
Average Humidity 85    
Maximum Humidity 100    
Minimum Humidity 36    
Precipitation  
Precipitation 0.58 in - - ()
Sea Level Pressure  
Sea Level Pressure 29.80 in    
Wind  
Wind Speed 13 mph (SW)    
Max Wind Speed 26 mph    
Max Gust Speed 34 mph    
Visibility 8 miles    
Events Fog , Rain , Thunderstorm    
Averages and records for this station are not official NWS values.
T = Trace of Precipitation, MM = Missing Value Source: NWS Daily Summary

Daily Weather History Graph

Daily Weather History Graph

Search for Another Location

Airport:

Trip Planner

Search our weather history database for the weather conditions in past years. The results will help you decide how hot, cold, wet, or windy it might be!

Date:

Astronomy

Apr. 15, 2013 Rise Set
Actual Time 6:16 AM CDT 7:40 PM CDT
Civil Twilight 5:47 AM CDT 8:10 PM CDT
Nautical Twilight 5:12 AM CDT 8:45 PM CDT
Astronomical Twilight 4:34 AM CDT 9:23 PM CDT
Moon 9:38 AM CDT (4/15) No Moon Set
Length of Visible Light 14h 22m
Length of Day
13h 24m
Waxing Crescent, 25% of the Moon is Illuminated
Apr 15
Waxing Crescent
Apr 18
First Quarter
Apr 25
Full
May 2
Last Quarter
May 9
New

Hourly Weather History & Observations

Time (CDT) Temp. Windchill Dew Point Humidity Pressure Visibility Wind Dir Wind Speed Gust Speed Precip Events Conditions
12:15 AM 55.4 °F - 53.6 °F 94% 29.60 in 7.0 mi WSW 19.6 mph 24.2 mph 0.03 in Rain Heavy Rain
12:35 AM 53.6 °F - 53.6 °F 100% 29.62 in 3.0 mi West 17.3 mph 33.4 mph 0.19 in Rain , Thunderstorm Thunderstorms and Rain
12:55 AM 51.8 °F - 51.8 °F 100% 29.63 in 4.0 mi West 10.4 mph - 0.28 in Rain , Thunderstorm Heavy Thunderstorms and Rain
1:15 AM 51.8 °F - 51.8 °F 100% 29.65 in 5.0 mi WSW 6.9 mph - 0.08 in Rain Heavy Rain
1:35 AM 51.8 °F - 51.8 °F 100% 29.67 in 5.0 mi SW 9.2 mph - 0.16 in Rain Rain
1:55 AM 51.8 °F - 51.8 °F 100% 29.64 in 4.0 mi SSE 3.5 mph - 0.23 in Rain Rain
2:15 AM 51.8 °F - 51.8 °F 100% 29.64 in 5.0 mi South 3.5 mph - 0.01 in   Overcast
2:35 AM 50.0 °F - 50.0 °F 100% 29.66 in 0.8 mi South 6.9 mph - 0.01 in   Overcast
2:55 AM 50.0 °F - 50.0 °F 100% 29.67 in 2.5 mi South 6.9 mph - 0.01 in Rain Light Rain
3:15 AM 50.0 °F - 50.0 °F 100% 29.68 in 2.5 mi SW 10.4 mph - 0.01 in   Light Drizzle
3:35 AM 50.0 °F - 50.0 °F 100% 29.69 in 10.0 mi SW 9.2 mph - 0.01 in   Overcast
3:55 AM 51.8 °F - 51.8 °F 100% 29.71 in 10.0 mi SW 13.8 mph - 0.01 in   Overcast
4:15 AM 50.0 °F - 50.0 °F 100% 29.69 in 10.0 mi SW 8.1 mph - N/A   Overcast
4:35 AM 50.0 °F - 50.0 °F 100% 29.70 in 10.0 mi SW 9.2 mph - N/A   Overcast
4:55 AM 50.0 °F - 50.0 °F 100% 29.70 in 10.0 mi SSW 9.2 mph - N/A   Overcast
5:15 AM 48.2 °F - 48.2 °F 100% 29.71 in 10.0 mi SW 8.1 mph - N/A   Mostly Cloudy
5:35 AM 48.2 °F - 48.2 °F 100% 29.71 in 7.0 mi SW 10.4 mph - N/A   Mostly Cloudy
5:55 AM 50.0 °F - 50.0 °F 100% 29.71 in 7.0 mi SW 8.1 mph - N/A   Overcast
6:15 AM 48.2 °F - 48.2 °F 100% 29.71 in 2.0 mi SW 8.1 mph - N/A   Overcast
6:35 AM 50.0 °F - 50.0 °F 100% 29.72 in 0.5 mi SSW 8.1 mph - N/A Fog Fog
6:55 AM 50.0 °F - 50.0 °F 100% 29.74 in 7.0 mi SSW 8.1 mph - N/A   Overcast
7:15 AM 50.0 °F - 50.0 °F 100% 29.74 in 5.0 mi South 8.1 mph - N/A   Mostly Cloudy
7:35 AM 50.0 °F - 50.0 °F 100% 29.74 in 5.0 mi South 10.4 mph - N/A   Mostly Cloudy
7:55 AM 50.0 °F - 50.0 °F 100% 29.74 in 5.0 mi South 10.4 mph - N/A   Mostly Cloudy
8:15 AM 50.0 °F - 50.0 °F 100% 29.74 in 3.0 mi SSW 12.7 mph - N/A   Overcast
8:35 AM 51.8 °F - 51.8 °F 100% 29.75 in 7.0 mi SSW 12.7 mph - N/A   Overcast
8:55 AM 51.8 °F - 51.8 °F 100% 29.75 in 10.0 mi SSW 11.5 mph - N/A   Overcast
9:15 AM 53.6 °F - 51.8 °F 94% 29.75 in 10.0 mi SW 17.3 mph 21.9 mph N/A   Mostly Cloudy
9:35 AM 53.6 °F - 48.2 °F 82% 29.76 in 10.0 mi SW 15.0 mph - N/A   Mostly Cloudy
9:55 AM 55.4 °F - 44.6 °F 67% 29.76 in 10.0 mi SW 15.0 mph - N/A   Mostly Cloudy
10:15 AM 55.4 °F - 42.8 °F 63% 29.76 in 10.0 mi SSW 18.4 mph 23.0 mph N/A   Scattered Clouds
10:35 AM 55.4 °F - 39.2 °F 54% 29.76 in 10.0 mi SW 18.4 mph - N/A   Scattered Clouds
10:55 AM 57.2 °F - 35.6 °F 44% 29.76 in 10.0 mi SW 20.7 mph 31.1 mph N/A   Scattered Clouds
11:15 AM 59.0 °F - 33.8 °F 39% 29.77 in 10.0 mi SW 25.3 mph 29.9 mph N/A   Mostly Cloudy
11:35 AM 59.0 °F - 35.6 °F 42% 29.77 in 10.0 mi SW 19.6 mph 31.1 mph N/A   Mostly Cloudy
11:55 AM 59.0 °F - 37.4 °F 45% 29.78 in 10.0 mi SW 21.9 mph 28.8 mph N/A   Mostly Cloudy
12:15 PM 57.2 °F - 37.4 °F 48% 29.78 in 10.0 mi SW 20.7 mph 26.5 mph N/A   Mostly Cloudy
12:35 PM 59.0 °F - 33.8 °F 39% 29.79 in 10.0 mi SW 21.9 mph 33.4 mph N/A   Overcast
12:55 PM 60.8 °F - 33.8 °F 36% 29.79 in 10.0 mi SW 23.0 mph 31.1 mph N/A   Mostly Cloudy
1:15 PM 59.0 °F - 35.6 °F 42% 29.80 in 10.0 mi West 21.9 mph 32.2 mph N/A   Mostly Cloudy
1:35 PM 57.2 °F - 37.4 °F 48% 29.81 in 10.0 mi West 26.5 mph 34.5 mph N/A   Overcast
1:55 PM 55.4 °F - 37.4 °F 51% 29.82 in 10.0 mi West 24.2 mph 29.9 mph N/A   Overcast
2:15 PM 53.6 °F - 37.4 °F 54% 29.83 in 10.0 mi West 16.1 mph 25.3 mph N/A   Overcast
2:35 PM 51.8 °F - 37.4 °F 58% 29.84 in 10.0 mi West 23.0 mph 27.6 mph N/A   Overcast
2:55 PM 50.0 °F - 33.8 °F 54% 29.85 in 10.0 mi WSW 24.2 mph - N/A   Overcast
3:15 PM 50.0 °F - 33.8 °F 54% 29.87 in 10.0 mi West 26.5 mph 29.9 mph N/A   Mostly Cloudy
3:35 PM 48.2 °F - 33.8 °F 58% 29.87 in 10.0 mi West 18.4 mph - N/A   Mostly Cloudy
3:55 PM 44.6 °F 36.6 °F 33.8 °F 66% 29.88 in 10.0 mi West 19.6 mph 34.5 mph N/A Rain Light Rain
4:15 PM 42.8 °F 34.8 °F 41.0 °F 93% 29.87 in 10.0 mi WNW 17.3 mph 23.0 mph N/A Rain Light Rain
4:35 PM 42.8 °F 34.5 °F 39.2 °F 87% 29.88 in 10.0 mi West 18.4 mph 26.5 mph N/A   Overcast
4:55 PM 42.8 °F 34.8 °F 41.0 °F 93% 29.88 in 10.0 mi West 17.3 mph 20.7 mph N/A Rain Light Rain
5:15 PM 42.8 °F 38.6 °F 41.0 °F 93% 29.85 in 10.0 mi West 6.9 mph - N/A Thunderstorm Unknown
5:35 PM 42.8 °F 37.5 °F 41.0 °F 93% 29.87 in 10.0 mi WSW 9.2 mph - N/A   Overcast
5:55 PM 42.8 °F 38.6 °F 41.0 °F 93% 29.87 in 10.0 mi West 6.9 mph - N/A   Overcast
6:15 PM 42.8 °F 36.2 °F 39.2 °F 87% 29.87 in 10.0 mi West 12.7 mph 18.4 mph N/A   Overcast
6:35 PM 42.8 °F 36.2 °F 39.2 °F 87% 29.88 in 10.0 mi WSW 12.7 mph - N/A Thunderstorm Overcast
6:55 PM 42.8 °F 37.5 °F 39.2 °F 87% 29.87 in 10.0 mi West 9.2 mph - N/A   Overcast
7:15 PM 41.0 °F 35.2 °F 39.2 °F 93% 29.88 in 10.0 mi WSW 9.2 mph - N/A   Overcast
7:35 PM 41.0 °F 35.8 °F 39.2 °F 93% 29.88 in 10.0 mi West 8.1 mph - N/A Rain Light Rain
7:55 PM 41.0 °F 35.8 °F 41.0 °F 100% 29.88 in 10.0 mi West 8.1 mph - N/A Rain Light Rain
8:15 PM 41.0 °F 35.2 °F 39.2 °F 93% 29.89 in 10.0 mi West 9.2 mph - N/A Rain Light Rain
8:35 PM 41.0 °F 34.3 °F 39.2 °F 93% 29.92 in 10.0 mi WSW 11.5 mph - N/A Rain Rain
8:55 PM 41.0 °F 35.8 °F 39.2 °F 93% 29.92 in 7.0 mi SW 8.1 mph - 0.03 in Rain Rain
9:15 PM 39.2 °F 33.0 °F 39.2 °F 100% 29.93 in 10.0 mi SSW 9.2 mph - 0.02 in Rain Light Rain
9:35 PM 39.2 °F 33.0 °F 39.2 °F 100% 29.95 in 10.0 mi SSW 9.2 mph - 0.02 in Rain Rain
9:55 PM 39.2 °F 33.0 °F 39.2 °F 100% 29.95 in 10.0 mi SW 9.2 mph - 0.02 in Rain Light Rain
10:15 PM 39.2 °F 33.6 °F 39.2 °F 100% 29.95 in 10.0 mi SSW 8.1 mph - N/A Rain Rain
10:35 PM 39.2 °F 34.2 °F 39.2 °F 100% 29.96 in 10.0 mi SW 6.9 mph - N/A   Overcast
10:55 PM 39.2 °F 34.2 °F 39.2 °F 100% 29.96 in 10.0 mi SW 6.9 mph - N/A   Overcast
11:15 PM 41.0 °F 35.8 °F 41.0 °F 100% 29.97 in 10.0 mi SW 8.1 mph - N/A   Overcast
11:35 PM 41.0 °F 35.8 °F 41.0 °F 100% 29.98 in 10.0 mi SW 8.1 mph - N/A   Overcast
11:55 PM 41.0 °F 36.4 °F 41.0 °F 100% 29.98 in 10.0 mi SW 6.9 mph - N/A   Overcast